Weather History for Bedford, MA

Change the Weather History Date:

Friday, June 6, 2014

  Actual Average Record
Temperature  
Mean Temperature 62 °F -  
Max Temperature 75 °F 71 °F 93 °F (1968)
Min Temperature 50 °F 50 °F 35 °F (1964)
Degree Days  
Heating Degree Days 2    
Growing Degree Days 12 (Base 50)    
Moisture  
Dew Point 54 °F    
Average Humidity 81    
Maximum Humidity 100    
Minimum Humidity 49    
Precipitation  
Precipitation 0.00 in - - ()
Sea Level Pressure  
Sea Level Pressure 29.78 in    
Wind  
Wind Speed 4 mph (West)    
Max Wind Speed 15 mph    
Max Gust Speed 22 mph    
Visibility 8 miles    
Events Fog    
Averages and records for this station are not official NWS values.
T = Trace of Precipitation, MM = Missing Value Source: NWS Daily Summary

Daily Weather History Graph

Daily Weather History Graph

Search for Another Location

Airport:

Trip Planner

Search our weather history database for the weather conditions in past years. The results will help you decide how hot, cold, wet, or windy it might be!

Date:

Astronomy

Jun. 06, 2014 Rise Set
Actual Time 5:08 AM EDT 8:19 PM EDT
Civil Twilight 4:34 AM EDT 8:53 PM EDT
Nautical Twilight 3:50 AM EDT 9:38 PM EDT
Astronomical Twilight 2:56 AM EDT 10:31 PM EDT
Moon 1:27 PM EDT (6/6) 1:07 AM EDT (6/6)
Length of Visible Light 16h 19m
Length of Day
15h 10m
First Quarter, 58% of the Moon is Illuminated
Jun 6
First Quarter
Jun 13
Full
Jun 19
Last Quarter
Jun 27
New
Jul 5
First Quarter

Hourly Weather History & Observations

Time (EDT) Temp. Dew Point Humidity Pressure Visibility Wind Dir Wind Speed Gust Speed Precip Events Conditions
12:03 AM 53.6 °F 53.6 °F 100% 29.70 in 3.0 mi Calm Calm - N/A Fog Patches of Fog
12:06 AM 53.1 °F 53.1 °F 100% 29.70 in 1.5 mi Calm Calm - N/A Fog Patches of Fog
12:12 AM 53.1 °F 53.1 °F 100% 29.70 in 0.5 mi Calm Calm - N/A Fog Patches of Fog
12:14 AM 53.1 °F 53.1 °F 100% 29.70 in 0.2 mi Calm Calm - N/A Fog Patches of Fog
12:46 AM 52.0 °F 52.0 °F 100% 29.70 in 0.5 mi Calm Calm - N/A Fog Patches of Fog
12:56 AM 52.0 °F 52.0 °F 100% 29.73 in 0.5 mi Calm Calm - N/A Fog Patches of Fog
1:12 AM 50.0 °F 50.0 °F 100% 29.70 in 1.0 mi Calm Calm - N/A Fog Patches of Fog
1:43 AM 52.0 °F 52.0 °F 100% 29.69 in 2.5 mi WSW 4.6 mph - N/A Fog Patches of Fog
1:56 AM 54.0 °F 54.0 °F 100% 29.73 in 10.0 mi WSW 5.8 mph - N/A Fog Patches of Fog
2:56 AM 54.0 °F 54.0 °F 100% 29.73 in 10.0 mi West 5.8 mph - N/A Fog Patches of Fog
3:56 AM 53.1 °F 53.1 °F 100% 29.73 in 10.0 mi WSW 6.9 mph - N/A Fog Patches of Fog
4:56 AM 53.1 °F 53.1 °F 100% 29.74 in 10.0 mi West 5.8 mph - N/A Fog Patches of Fog
5:56 AM 52.0 °F 52.0 °F 100% 29.75 in 9.0 mi West 3.5 mph - N/A Fog Patches of Fog
6:56 AM 55.9 °F 55.9 °F 100% 29.77 in 10.0 mi West 4.6 mph - N/A   Mostly Cloudy
7:56 AM 60.1 °F 57.0 °F 90% 29.79 in 10.0 mi WNW 5.8 mph - N/A   Mostly Cloudy
8:56 AM 64.0 °F 57.0 °F 78% 29.81 in 10.0 mi WNW 12.7 mph 17.3 mph N/A   Overcast
9:56 AM 64.9 °F 55.9 °F 73% 29.80 in 10.0 mi WNW 15.0 mph - N/A   Scattered Clouds
10:56 AM 68.0 °F 55.0 °F 63% 29.81 in 10.0 mi WNW 13.8 mph 20.7 mph N/A   Partly Cloudy
11:56 AM 70.0 °F 55.0 °F 59% 29.81 in 10.0 mi NW 12.7 mph 17.3 mph N/A   Mostly Cloudy
12:56 PM 73.0 °F 54.0 °F 51% 29.79 in 10.0 mi West 10.4 mph - N/A   Scattered Clouds
1:56 PM 75.0 °F 55.0 °F 50% 29.79 in 10.0 mi WNW 9.2 mph - N/A   Mostly Cloudy
2:56 PM 72.0 °F 54.0 °F 53% 29.79 in 10.0 mi West 10.4 mph - N/A   Mostly Cloudy
3:56 PM 73.0 °F 55.0 °F 53% 29.80 in 10.0 mi WNW 10.4 mph - N/A   Mostly Cloudy
4:56 PM 73.0 °F 53.1 °F 49% 29.80 in 10.0 mi NW 9.2 mph 21.9 mph N/A   Clear
5:56 PM 73.0 °F 53.1 °F 49% 29.82 in 10.0 mi NW 9.2 mph - N/A   Overcast
6:56 PM 69.1 °F 52.0 °F 54% 29.84 in 10.0 mi WNW 11.5 mph - N/A   Mostly Cloudy
7:56 PM 66.9 °F 53.1 °F 61% 29.86 in 10.0 mi WNW 6.9 mph - N/A   Scattered Clouds
8:56 PM 63.0 °F 53.1 °F 70% 29.87 in 10.0 mi WNW 6.9 mph - N/A   Clear
9:56 PM 60.1 °F 53.1 °F 78% 29.89 in 10.0 mi West 4.6 mph - N/A   Clear
10:56 PM 57.9 °F 53.1 °F 84% 29.89 in 10.0 mi West 3.5 mph - N/A   Clear
11:56 PM 57.0 °F 53.1 °F 87% 29.90 in 10.0 mi WSW 3.5 mph - N/A   Clear